Location: Buffign�court
(47.8126°N, 6.0176°E)
Time: 18:37:28
(UTC+00:00)

Cosmos 2233 Rocket - Pass Details

Date: 16 June 2021
Orbit: 954 x 990 km, 82.9° (Epoch: 30 July)

Event Time Altitude Azimuth Distance (km) Brightness Sun altitude
Rises 21:40:23 0° 352° (N) 3,644 8.4 -14.2°
Reaches altitude 10° 21:42:55 10° 356° (N) 2,695 7.4 -14.4°
Maximum altitude 21:49:03 67° 79° (ENE) 1,039 4.1 -14.8°
Enters shadow 21:53:08 22° 157° (SSE) 1,963 5.0 -15.1°
